Regional Weather Roundup
Issued by NWS Upton, NY

Current Version | Previous Version | Graphics & Text | Print | Product List | Glossary Off
Versions: 1 2 3 4 5 6 7 8 9 10 11 12 13 14 15 16 17 18 19 20 21 22 23 24 25 26 27 28 29 30 31 32 33 34 35 36 37 38 39 40 41 42 43 44 45 46 47 48 49 50

000
ASUS41 KOKX 022008
RWROKX

REGIONAL WEATHER ROUNDUP
NATIONAL WEATHER SERVICE NEW YORK NY
400 PM EDT SAT MAY 02 2015

NOTE: "FAIR" INDICATES FEW OR NO CLOUDS BELOW 12,000 FEET WITH NO
SIGNIFICANT WEATHER AND/OR OBSTRUCTIONS TO VISIBILITY.

NYZ071-072-176-178-NJZ106-104-022100-
NEW YORK CITY METRO AREA


CITY           SKY/WX    TMP DP  RH WIND       PRES   REMARKS
CENTRAL PARK   SUNNY     60  42  51 S9G18     29.97F
LAGUARDIA APRT MOSUNNY   61  43  51 S14       29.95F
KENNEDY INTL   MOSUNNY   55  43  63 SE16      29.98F
NEWARK/LIBERTY MOSUNNY   59  42  53 SE14      29.95S
BRNX BOT. GARD   N/A     59  43  55 E9        29.94S
TETERBORO      SUNNY     65  44  46 S14G20    29.93R
$$

NYZ177-179-078>081-022100-
LONG ISLAND NEW YORK

CITY           SKY/WX    TMP DP  RH WIND       PRES   REMARKS
FARMINGDALE    SUNNY     55  41  59 SE9       29.98F
ISLIP          MOSUNNY   53  39  59 S10       29.96F
SHIRLEY        SUNNY     53  37  54 SE10      29.98F
WESTHAMPTON    SUNNY     52  36  54 S9        29.99F
MONTAUK POINT    N/A     53  40  61 VRB3      29.99F
$$

NYZ052-065-067-022100-
HUDSON VALLEY

CITY           SKY/WX    TMP DP  RH WIND       PRES   REMARKS
WHITE PLAINS   MOSUNNY   62  47  57 SE13G18   29.94S
NEWBURGH       MOSUNNY   73  41  31 E9        29.91F
MONTGOMERY     MOSUNNY   74  40  29 VRB3      29.90F
POUGHKEEPSIE   MOSUNNY   76  33  21 N13       29.88F
ALBANY         PTSUNNY   73  39  29 SE5       29.89F
$$

NJZ001-105-106-008-010-013-015-019>022-104-022100-
NEW JERSEY

CITY           SKY/WX    TMP DP  RH WIND       PRES   REMARKS
NEWARK/LIBERTY MOSUNNY   59  42  53 SE14      29.95S
TETERBORO      SUNNY     65  44  46 S14G20    29.93R
CALDWELL       PTSUNNY   68  44  42 S14G22    29.92S
MORRISTOWN     PTSUNNY   72  37  28 E7        29.92F
SOMERVILLE     CLOUDY    74  39  28 VRB5      29.90F
SUSSEX         MOSUNNY   72  39  30 SE5       29.92F
ANDOVER          N/A     71  37  28 CALM      29.92F
TRENTON        CLOUDY    71  41  33 N6        29.93F
MILLVILLE      PTSUNNY   67  47  48 SE12      29.96F
ATLANTIC CITY  SUNNY     58  45  62 SE10      29.99F
WRIGHTSTOWN    MOSUNNY   68  45  43 E8        29.91F
TOMS RIVER     SUNNY     63  43  48 SE9G16    29.97F
BELMAR         SUNNY     57  39  51 SE10      29.97F
$$

PAZ047>061-062-071-022100-
EASTERN PENNSYLVANIA

CITY           SKY/WX    TMP DP  RH WIND       PRES   REMARKS
PHILADELPHIA   PTSUNNY   73  43  33 E6        29.94F
ALLENTOWN      CLOUDY    72  39  30 NE6       29.93F
SCRANTON       PTSUNNY   72  33  24 NW9       29.93F
$$

CTZ002-004>006-009-010-012-RIZ004-006-007-MAZ004-011-015-022100-
SOUTHERN NEW ENGLAND
 IN CT

CITY           SKY/WX    TMP DP  RH WIND       PRES   REMARKS
BRADLEY INTL   MOSUNNY   73  39  29 E8        29.89F
HARTFORD       SUNNY     69  43  38 S17       29.90F
DANBURY        CLOUDY    63  40  42 S9        29.93F
WTRBRY/OXFORD  MOSUNNY   61  41  48 S13       29.95S
BRIDGEPORT     SUNNY     56  45  66 E8        29.96F
MERIDEN        SUNNY     65  39  38 SW13      29.94F
NEW HAVEN      SUNNY     58  43  57 SE10G18   29.96F
CHESTER        FAIR      59  39  47 S7        29.96F
GROTON         SUNNY     50  38  63 S10       29.97F
WILLIMANTIC    MOSUNNY   66  40  38 S10       29.92F

 IN RI

CITY           SKY/WX    TMP DP  RH WIND       PRES   REMARKS
PROVIDENCE     MOSUNNY   58  41  53 S15       29.95F
BLOCK ISLAND   SUNNY     48  37  66 SE8       29.98F
WESTERLY       SUNNY     50  39  66 SE10      29.98F

 IN MA

CITY           SKY/WX    TMP DP  RH WIND       PRES   REMARKS
BOSTON         MOSUNNY   48  42  80 E10       29.98F
WORCESTER      SUNNY     65  35  33 VRB3      29.93F
WESTFIELD      PTSUNNY   74  38  27 N3        29.89F
PROVINCETOWN   SUNNY     48  39  71 NE9       30.00S
NANTUCKET      SUNNY     49  37  63 NE12      29.97F
$$

ANZ330-335-338-340-345-350-353-355-022100-
COASTAL MARINE OBSERVATIONS


STATION/POSITION TIME  SKY/WX   TEMP    WIND        PRES    VSBY  WAVE
                                AIR SEA DIR/SP/G                  HT/PER
                 (UTC)          (F)     (DEG/KT/KT) (MB)    (MI)  (FT/S)
NY HARB ENTRANCE 1950            47 49  140/ 14/ 14 1014.6          5/ 7
4S FIRE IS       1903               48                N/A           5/ 6
20S FIRE ISLAND  1950            45 47  140/  8/ 10 1015.5          5/ 7
GREAT SOUTH BAY  1900            47 57  170/  6/  8   N/A
23SW MTP         1950            44 45  120/  8/  8 1015.0          4/ 7
HUDSON CANYON    NOT AVBL
EXECUTION ROCKS  NOT AVBL
WESTERN LI SOUND NOT AVBL
CENTRAL LI SOUND NOT AVBL
EASTERN LI SOUND 1900            46     150/  6/  8   N/A
ROBBINS REEF     1900            50     170/ 23/ 25 1013.3
$$


>>>>>>>>>>>>>>>>>>>>>>>>>>>> KEY <<<<<<<<<<<<<<<<<<<<<<<<<<<
>                                                          <
>     SKY/WX - SKY CONDITION/PRESENT WEATHER               <
>     TMP    - TEMPERATURE IN FAHRENHEIT                   <
>     DP     - DEWPOINT IN FAHRENHEIT                      <
>     RH     - RELATIVE HUMIDITY IN PERCENT                <
>     WIND   - DIRECTION AND SPEED IN MPH                  <
>     PRES   - MEAN SEA LEVEL PRESSURE IN INCHES OF HG     <
>     WCI    - WIND CHILL INDEX                            <
>     VSB    - VISIBILITY IN MILES                         <
>     HX     - HEAT INDEX                                  <
>     TC     - TEMPERATURE IN CELSIUS                      <
>     VRB    - VARIABLE WIND DIRECTION                     <
>                                                          <
>>>>>>>>>>>>>>>>>>>>>>>>>>>> KEY <<<<<<<<<<<<<<<<<<<<<<<<<<<




USA.gov is the U.S. government's official web portal to all federal, state and local government web resources and services.